Location: Huisseau
(47.5933°N, 1.4533°E)
Time: 18:50:36
(UTC+00:00)

CENTAUR R/B - Pass Details

Date: 24 November 2025
Orbit: 633 x 1547 km, 63.4° (Epoch: 06 December)

Event Time Altitude Azimuth Distance (km) Brightness Sun altitude
Exits shadow 01:56:39 23° 95° (E) 2,747 5.0 -51.6°
Drops below altitude 10° 01:59:54 10° 106° (ESE) 3,672 5.7 -51.1°
Sets 02:03:15 0° 112° (ESE) 4,693 6.4 -50.6°
